Miscellaneous Local Product
Issued by NWS North Platte, NE

Home | Current Version | Previous Version | Text Only | Print | Product List | Glossary On
Versions: 1 2 3 4 5 6 7 8 9 10 11 12 13 14 15 16 17 18 19 20 21 22 23 24 25 26 27 28 29 30 31 32 33 34 35 36 37 38 39 40 41 42 43 44 45 46 47 48 49 50
000
AXUS43 KLBF 261910
MISLBF


WESTERN AND NORTH CENTRAL NEBRASKA HOURLY WEATHER ROUNDUP
NATIONAL WEATHER SERVICE NORTH PLATTE NE
100 PM CST MON JAN 26 2015

***STATIONS NOT REPORTING VARIABLES SUCH AS SKY/WEATHER OR
PRESSURE ARE PROVIDED BY THE NEBRASKA DEPARTMENT OF
ROADS...RAWS...AND APRS NETWORKS...AND ARE NOT UNDER
NATIONAL WEATHER SERVICE QUALITY CONTROL***

...OBSERVATIONS IN AND NEAR THE EASTERN PANHANDLE OF NEBRASKA...

CITY           SKY/WX    TMP DP  RH WIND       PRES   REMARKS
PINE RIDGE     SUNNY     58  36  43 SW8       30.09F
CHADRON        SUNNY     59  32  36 W15G23    30.11F
ALLIANCE       SUNNY     58  35  42 NW13      30.13F
SIDNEY         SUNNY     64  30  27 NW17      30.18F
WHITECLAY        N/A     57  33  39 S3          N/A
LISCO            N/A     61  26  26 W17         N/A
LEWELLEN         N/A     60  30  32 W14         N/A
$$

...OBSERVATIONS IN NORTH CENTRAL NEBRASKA...

CITY           SKY/WX    TMP DP  RH WIND       PRES   REMARKS
VALENTINE      SUNNY     61  32  33 NW14G21   30.03S
THEDFORD       SUNNY     64  33  31 NW22G29   30.05F
AINSWORTH      SUNNY     58  33  38 NW18      30.02F
O`NEILL        SUNNY     58  35  41 NW16      30.00S
ORD            SUNNY     60  33  36 NW16      30.00F
BROKEN BOW     SUNNY     63  34  33 NW25      30.02F
BROWNLEE         N/A     62  31  31 W17         N/A
SPRINGVIEW       N/A     59  33  37 NW13G23     N/A
BREWSTER         N/A     63  34  34 NW18        N/A
ROSE             N/A     62  40  43 SW10        N/A
SARGENT          N/A     60  36  41 NW8G17      N/A
COMSTOCK         N/A     65  36  34 NW18        N/A
CHAMBERS         N/A     58  33  39 N9          N/A
EWING            N/A     55  38  53 NW9G18      N/A
$$

...OBSERVATIONS IN SOUTHWEST NEBRASKA AND FAR NORTHEAST COLORADO...

CITY           SKY/WX    TMP DP  RH WIND       PRES   REMARKS
WRAY           FAIR      65  29  26 NW15G22   30.18F
HOLYOKE        FAIR      66  28  24 NW18G25   30.16F
IMPERIAL       SUNNY     66  29  24 NW24      30.12F
OGALLALA       SUNNY     63  32  31 NW15      30.12F
NORTH PLATTE   SUNNY     66  30  26 NW18G24   30.07F
MCCOOK         SUNNY     69  30  23 N22G29    30.08F
LEXINGTON      SUNNY     64  34  32 NW15G25   30.04F
BRADY            N/A     63  36  36 SW3         N/A
GOTHENBURG       N/A     64  29  27 NW13        N/A
CALLAWAY         N/A     63  36  36 NW22        N/A
$$

...NORTH PLATTE AREA...

CITY           SKY/WX    TMP DP  RH WIND       PRES   REMARKS
AIRPORT        SUNNY     66  30  26 NW18G24   30.07F
$$

...SOME WEATHER OBSERVATIONS FROM AROUND THE REGION...

CITY           SKY/WX    TMP DP  RH WIND       PRES   REMARKS
DENVER         SUNNY     67  21  17 SW9       30.26F
LARAMIE        SUNNY     53  23  31 CALM      30.34F
CHEYENNE       SUNNY     63  19  18 NW16G24   30.27F
SCOTTSBLUFF    SUNNY     59  36  42 NW9       30.16F
RAPID CITY     SUNNY     66  29  24 NW24      30.05F
PIERRE         SUNNY     54  32  43 NW15      30.01R
WINNER         FAIR      58  31  35 NW17      30.01F
SIOUX FALLS    MOSUNNY   47  38  71 NW18      29.89S
OMAHA          MOSUNNY   56  37  49 N14       29.92R
GRAND ISLAND   SUNNY     60  31  33 N21       30.02F
KANSAS CITY    MOSUNNY   54  36  50 W9        29.90F
WICHITA        SUNNY     68  35  29 NW16G22   30.00F
HAYS           SUNNY     68  34  28 NW20      30.06F
LIBERAL        SUNNY     66  34  30 NW14G22   30.19F
GOODLAND       SUNNY     66  31  27 N16G24    30.17F
$$



USA.gov is the U.S. government's official web portal to all federal, state and local government web resources and services.